Regional Weather Roundup
Issued by NWS

Home | Current Version | Previous Version | Text Only | Print | Product List | Glossary On
Versions: 1 2 3 4 5 6 7 8 9 10 11 12 13 14 15 16 17 18 19 20 21 22 23 24 25 26 27 28 29 30 31 32 33 34 35 36 37 38 39 40 41 42 43 44 45 46 47 48 49 50
000
ASUS42 KTBW 251018
RWRFL
FLORIDA REGIONAL WEATHER ROUNDUP
NATIONAL WEATHER SERVICE TAMPA BAY RUSKIN FL
600 AM EDT FRI MAY 25 2018

NOTE: "FAIR" INDICATES FEW OR NO CLOUDS BELOW 12,000 FEET WITH NO
SIGNIFICANT WEATHER AND/OR OBSTRUCTIONS TO VISIBILITY.

FLZ001>010-012>015-112-114-115-251100-
PANHANDLE FLORIDA

CITY           SKY/WX    TMP DP  RH WIND       PRES   REMARKS
PENSACOLA      FAIR      71  69  93 N3        29.98S
PENSACOLA NAS  FAIR      70  68  93 NW3       29.98S
MILTON NAS     FAIR      67  67 100 CALM      30.00  FOG
CRESTVIEW      FAIR      67  65  93 CALM      30.01S FOG
DUKE FIELD     FAIR      68  68 100 CALM      29.99S
VALPARAISO     PTCLDY    69  67  93 N3        29.98F
PANAMA CITY    FAIR      70  68  93 CALM      29.98S
TYNDALL AFB    FAIR      70  70 100 CALM      29.99S FOG
APALACHICOLA   FAIR      69  69 100 CALM      29.99R

STATION/POSITION SKY/WX   TEMP    WIND        PRES    WAVE   SWELL
                          AIR SEA DIR/SP/G            HT/PER HT/PER
                          (F)     (DEG/KT/KT) (MB)    (FT/S) (FT/S)
30.1N   87.6W              80      80/  4/  4 1015.3
29.2N   88.2W                 82  230/  2/  4 1015.2F   2/ 6   2/ 6
28.8N   86.0W              78 81  120/  2/  4 1015.0F   2/ 7   2/ 7
PANAMA CITY BEAC           75 82   50/  5/  6 1015.7F
TOWER C                    76     130/  3/  4 1016.0R

$$
FLZ011-016>038-118-127-128-134-139-239-251100-
NORTH FLORIDA

CITY           SKY/WX    TMP DP  RH WIND       PRES   REMARKS
MARIANNA       FAIR      71  69  93 CALM      29.99S
TALLAHASSEE    FAIR      71  69  93 E3        30.01S
PERRY          FAIR      72  69  93 CALM      30.02R
LIVE OAK       MOCLDY    72  72 100 CALM      30.03S
CROSS CITY     FAIR      70 N/A N/A CALM      30.01R
LAKE CITY      FAIR      68  68 100 CALM      30.02S FOG
GAINESVILLE    FAIR      73  70  90 SE5       30.04R
WILLISTON      CLEAR     73  73 100 CALM      30.02S FOG
PALATKA        FAIR      72  72 100 SE3       30.03S
MAYPORT NAS    MOCLDY    75  73  93 SE3       30.04R
JACKSONVILLE   MOCLDY    73  72  96 SE6       30.03R
JAX NAS        FAIR      75  73  93 SE8       30.04R
JAX CECIL        N/A     72  72 100 CALM      30.03R
FERNANDINA BEA FAIR      73  71  94 CALM      30.03R
ST AUGUSTINE   FAIR      72  71  97 CALM      30.05R
PALM COAST     CLEAR     70  70 100 CALM      30.03S

STATION/POSITION SKY/WX   TEMP    WIND        PRES    WAVE   SWELL
                          AIR SEA DIR/SP/G            HT/PER HT/PER
                          (F)     (DEG/KT/KT) (MB)    (FT/S) (FT/S)
SHELL POINT      NOT AVBL
KEATON BEACH               71      70/  6/  7 1016.2R
CEDAR KEY                  79     160/ 10/ 11 1016.2R
FERNANDINA                 76 78  120/  2/  3 1017.9R
30.7N   81.3W                 77                N/A     2/ 8
MAYPORT                    75 78   CALM  /  2 1017.4R
31.4N   80.9W              76 76  130/  6/  8 1017.2R   2/ 8   2/ 8
ST AUGUSTINE               75 79  180/  5/  6 1017.3R

$$
FLZ040-043>046-052-053-057-058-063-144-251100-
INTERIOR CENTRAL FLORIDA

CITY           SKY/WX    TMP DP  RH WIND       PRES   REMARKS
OCALA          FAIR      70  70 100 CALM      30.02S
LEESBURG       FAIR      75  74  96 CALM      30.03R
SANFORD        FAIR      72  71  97 CALM      30.02R
ORLANDO EXEC   FAIR      73  72  96 E3        30.02S
ORLANDO INTL   MOCLDY    73  73 100 E3        30.02S
KISSIMMEE      FAIR      74  72  93 E5        30.03R
WINTER HAVEN   FAIR      75  73  93 SE5       30.02S
LAKELAND       CLEAR     73  73 100 CALM      30.01F
BARTOW         FAIR      70 N/A N/A CALM      30.02S
SEBRING        PTSUNNY   73  71  92 E3        30.01R
OKEECHOBEE     FAIR      72  72 100 E3        30.00R

$$
FLZ041-047-054-059-064-141-147-251100-
EAST CENTRAL FLORIDA

CITY           SKY/WX    TMP DP  RH WIND       PRES   REMARKS
DAYTONA BEACH  FAIR      71  71 100 CALM      30.03R
DELAND         FAIR      70  68  94 CALM      30.03R
JFK SPACE CTR  FAIR      70  70 100 CALM      30.02R FOG
CAPE CANAVERAL FAIR      73  71  94 CALM      30.01R
PATRICK AFB    FAIR      77  77 100 SE7       30.01R
MELBOURNE      FAIR      78  73  84 SE3       30.01R
VERO BEACH     FAIR      76  73  91 E3        30.01R
FT PIERCE      FAIR      73  72  96 CALM      30.01R
STUART         FAIR      77  72  83 SE5       30.02R

STATION/POSITION SKY/WX   TEMP    WIND        PRES    WAVE   SWELL
                          AIR SEA DIR/SP/G            HT/PER HT/PER
                          (F)     (DEG/KT/KT) (MB)    (FT/S) (FT/S)
28.5N   80.2W              79 78  130/  8/ 10 1016.5R   2/ 8   2/ 8
28.9N   78.5W              78 79  120/ 10/ 14 1017.8R   3/ 9   3/ 9
TRIDENT PIER                      110/  2/  6   N/A
28.4N   80.5W                 79                N/A     2/ 8
27.5N   80.2W                 77                N/A     2/ 8

$$
FLZ050-056-061-142-242-148-248-149-249-151-251-155-255-
160-260-251100-
WEST CENTRAL FLORIDA

CITY           SKY/WX    TMP DP  RH WIND       PRES   REMARKS
CRYSTAL RIVER  FAIR      70  70 100 SE3       30.01S
INVERNESS      FAIR      70  70 100 CALM      30.02S
BROOKSVILLE    FAIR      70  69  97 E5        30.02S
CLEARWATER AIR FAIR      73  72  94 E3        30.00S
ST PETE CLEARW FAIR      75  75 100 E6        30.00S
TAMPA INTL     FAIR      75  72  90 E3        30.01R
TAMPA EXEC       N/A     70  70 100 CALM      30.02R FOG
MACDILL AFB    FAIR      74  73  95 E5        30.00S
PETER O KNIGHT FAIR     N/A N/A N/A E5        30.01S
ST PETERSBURG  FAIR      77  74  90 SE8       29.99R
SARASOTA       FAIR      73  72  96 E6        29.98R
VENICE         CLOUDY    73  73 100 NE7       29.99S

STATION/POSITION SKY/WX   TEMP    WIND        PRES    WAVE   SWELL
                          AIR SEA DIR/SP/G            HT/PER HT/PER
                          (F)     (DEG/KT/KT) (MB)    (FT/S) (FT/S)
27.3N   84.2W                 80                N/A     2/ 8
CLEARWATER BEACH           76 83   80/  4/  7 1015.9S
MIDDLE TAMPA BAY                  120/  8/  9   N/A
VENICE                     73 80   70/  4/  5 1015.3F

$$
FLZ066-069-070-075>078-162-262-165-265-251100-
SOUTHWEST FLORIDA AND KEYS

CITY           SKY/WX    TMP DP  RH WIND       PRES   REMARKS
PUNTA GORDA    MOCLDY    73  70  90 E6        29.99F FOG
FT MYERS       FAIR      74  73  97 E3        29.97F
SOUTHWEST INTL FAIR      73  73 100 E5        29.98F
NAPLES         FAIR      74  74 100 E6        29.97S
MARCO ISLAND   FAIR      73  72  96 NE6       29.98S
IMMOKALEE      MOCLDY    72  70  94 NE3       29.99F
MARATHON       FAIR      80  74  81 E5        29.96S
KEY WEST NAS   LGT RAIN  74  70  87 SE12      29.96S FOG
KEY WEST INTL  CLOUDY    75  73  93 E8        29.96S

STATION/POSITION SKY/WX   TEMP    WIND        PRES    WAVE   SWELL
                          AIR SEA DIR/SP/G            HT/PER HT/PER
                          (F)     (DEG/KT/KT) (MB)    (FT/S) (FT/S)
NAPLES                     75 80              1014.7F
26.0N   85.6W              80 83   80/ 10/ 14 1013.7
DRY TORTUGAS               78      80/  8/  9 1014.1F
SAND KEY                   77                 1014.2F
SOMBRERO KEY               79                 1013.8F
LONG KEY                   79 80  120/  8/ 10 1014.5S
MOLASSES REEF              79 80  130/ 14/ 15 1015.1S

$$
FLZ067-068-071>074-168-172>174-251100-
SOUTHEAST FLORIDA

CITY           SKY/WX    TMP DP  RH WIND       PRES   REMARKS
W PALM BEACH   RAIN      77  75  93 E15       30.00S FOG
FT LAUDER-EXEC FAIR      79  75  87 SE7       29.98S
FT LAUDERDALE  PTCLDY    77  75  94 SE15G22   29.97F
POMPANO BEACH  FAIR      79  73  82 SE10      29.98F
PEMBROKE PINES FAIR      78  74  87 E5        29.99F
OPA LOCKA      FAIR      77  75  93 E7        29.98F
MIAMI          CLOUDY    78  75  90 E12       29.98F
WEST KENDALL   FAIR      76  73  91 E6        29.98S
HOMESTEAD      FAIR      79  74  84 E7        29.97S

STATION/POSITION SKY/WX   TEMP    WIND        PRES    WAVE   SWELL
                          AIR SEA DIR/SP/G            HT/PER HT/PER
                          (F)     (DEG/KT/KT) (MB)    (FT/S) (FT/S)
PORT EVERGLADES            78     140/ 12/ 18 1015.2
VIRGINIA KEY               79 81  100/  6/ 10 1014.7S
LAKE WORTH                 79 78  140/ 11/ 13 1016.6S
FOWEY ROCKS                79 79  120/ 15/ 16 1015.6F
SETTLEMENT POINT           78     130/  6/  8 1016.2R

$$




USA.gov is the U.S. government's official web portal to all federal, state and local government web resources and services.